Location: UFOWorks Observatory
(42.1050°N, 72.2350°W)
Time: 00:41:35
(UTC-04:00)

ISS - Visible Passes

Search period start: 03 September 2014 00:00
Search period end: 13 September 2014 00:00
Orbit: 413 x 419 km, 51.6° (Epoch: 02 September)

Date Brightness Start Highest point End Pass type
(mag) Time Alt. Az. Time Alt. Az. Time Alt. Az.
09 Sep -0.2 05:47:42 10° SSE 05:48:45 11° SE 05:49:47 10° ESE visible
11 Sep -1.6 05:44:45 10° SSW 05:47:42 30° SE 05:50:40 10° ENE visible
12 Sep -0.8 04:56:55 10° S 04:59:07 18° SE 05:01:25 10° E visible
